This is the latest recevied weather packets stored in our database for station/object KC5CAM-13. If no packets are shown the sender has not sent any weather packets the latest 10 day(s).
| Time | Temp. | Humidity | Pressure | Rain* | Wind** | Luminosity | Snow |
|---|---|---|---|---|---|---|---|
| 1777428946 | 22.78° C | 85% | 1011.8 hPa | 0 mm | - | 0 W/m² | - |
| 1777428643 | 22.78° C | 85% | 1011.7 hPa | 0 mm | - | 0 W/m² | - |
| 1777428338 | 22.78° C | 85% | 1011.7 hPa | 0 mm | - | 0 W/m² | - |
| 1777428034 | 22.78° C | 85% | 1011.4 hPa | 0 mm | - | 0 W/m² | - |
| 1777427730 | 22.78° C | 85% | 1011.2 hPa | 0 mm | - | 0 W/m² | - |
| 1777427428 | 22.78° C | 85% | 1011.2 hPa | 0 mm | - | 0 W/m² | - |
| 1777427123 | 23.33° C | 85% | 1011.4 hPa | 0 mm | - | 0 W/m² | - |
| 1777426821 | 23.33° C | 84% | 1011.1 hPa | 0 mm | - | 0 W/m² | - |
| 1777426518 | 23.33° C | 84% | 1011.1 hPa | 0 mm | - | 0 W/m² | - |
| 1777426214 | 23.89° C | 84% | 1010.9 hPa | 0 mm | - | 0 W/m² | - |
| 1777425909 | 23.89° C | 84% | 1011 hPa | 0 mm | - | 0 W/m² | - |
| 1777425605 | 23.89° C | 83% | 1010.6 hPa | 0 mm | - | 0 W/m² | - |
| 1777425301 | 23.89° C | 83% | 1010.7 hPa | 0 mm | - | 0 W/m² | - |
| 1777424998 | 23.89° C | 84% | 1010.9 hPa | 0 mm | - | 0 W/m² | - |
| 1777424687 | 23.89° C | 84% | 1011 hPa | 0 mm | - | 1 W/m² | - |
| 1777424382 | 23.89° C | 84% | 1010.7 hPa | 0 mm | - | 2 W/m² | - |
| 1777424078 | 23.89° C | 84% | 1010.9 hPa | 0 mm | - | 5 W/m² | - |
| 1777423776 | 24.44° C | 84% | 1010.9 hPa | 0 mm | - | 6 W/m² | - |
| 1777423472 | 24.44° C | 84% | 1010.9 hPa | 0 mm | - | 16 W/m² | - |
| 1777423167 | 25° C | 84% | 1011 hPa | 0 mm | - | 19 W/m² | - |
| 1777422861 | 25.56° C | 83% | 1010.4 hPa | 0 mm | - | 21 W/m² | - |
| 1777422557 | 25° C | 82% | 1010.2 hPa | 0 mm | - | 27 W/m² | - |
| 1777422253 | 25° C | 81% | 1010.4 hPa | 0 mm | - | 27 W/m² | - |
| 1777421952 | 25° C | 80% | 1010.1 hPa | 0 mm | - | 36 W/m² | - |
| 1777421648 | 25° C | 81% | 1009.7 hPa | 0 mm | - | 52 W/m² | - |
* Rain latest hour (hover to see other rain measurements)
** Current wind speed in m/s (hover to see current wind gust speed)